This is the latest recevied weather packets stored in our database for station/object NO4D. If no packets are shown the sender has not sent any weather packets the latest 10 day(s).
| Time | Temp. | Humidity | Pressure | Rain* | Wind** | Luminosity | Snow |
|---|---|---|---|---|---|---|---|
| 1777495966 | 28.33° C | 59% | 1008.5 hPa | 0 mm | - | 541 W/m² | - |
| 1777495662 | 28.89° C | 57% | 1008.4 hPa | 0 mm | - | 565 W/m² | - |
| 1777495359 | 28.89° C | 60% | 1008.2 hPa | 0 mm | - | 563 W/m² | - |
| 1777495056 | 28.89° C | 60% | 1008.2 hPa | 0 mm | - | 573 W/m² | - |
| 1777494753 | 28.33° C | 61% | 1008.4 hPa | 0 mm | - | 582 W/m² | - |
| 1777494450 | 28.89° C | 61% | 1008.4 hPa | 0 mm | - | 616 W/m² | - |
| 1777494146 | 28.33° C | 63% | 1008.5 hPa | 0 mm | - | 605 W/m² | - |
| 1777493844 | 28.33° C | 62% | 1008.6 hPa | 0 mm | - | 617 W/m² | - |
| 1777493542 | 28.33° C | 63% | 1008.8 hPa | 0 mm | - | 650 W/m² | - |
| 1777493239 | 28.33° C | 65% | 1009.1 hPa | 0 mm | - | 695 W/m² | - |
| 1777492935 | 27.78° C | 63% | 1009 hPa | 0 mm | - | 609 W/m² | - |
| 1777492633 | 27.78° C | 63% | 1009 hPa | 0 mm | - | 660 W/m² | - |
| 1777492333 | 27.78° C | 64% | 1009.2 hPa | 0 mm | - | 619 W/m² | - |
| 1777492030 | 27.78° C | 63% | 1009.3 hPa | 0 mm | - | 660 W/m² | - |
| 1777491727 | 27.78° C | 64% | 1009.1 hPa | 0 mm | - | 717 W/m² | - |
| 1777491424 | 26.67° C | 65% | 1009.4 hPa | 0 mm | - | 726 W/m² | - |
| 1777491121 | 26.67° C | 67% | 1009.5 hPa | 0 mm | - | 302 W/m² | - |
| 1777490816 | 27.22° C | 66% | 1009.5 hPa | 0 mm | - | 405 W/m² | - |
| 1777490513 | 27.78° C | 65% | 1009.7 hPa | 0 mm | - | 628 W/m² | - |
| 1777490209 | 27.78° C | 63% | 1009.7 hPa | 0 mm | - | 326 W/m² | - |
| 1777489907 | 27.78° C | 66% | 1009.8 hPa | 0 mm | - | 677 W/m² | - |
| 1777489604 | 26.67° C | 66% | 1009.7 hPa | 0 mm | - | 707 W/m² | - |
| 1777489301 | 26.11° C | 68% | 1010.2 hPa | 0 mm | - | 739 W/m² | - |
| 1777488998 | 26.67° C | 68% | 1010.1 hPa | 0 mm | - | 759 W/m² | - |
| 1777488695 | 26.11° C | 68% | 1010.1 hPa | 0 mm | - | 680 W/m² | - |
* Rain latest hour (hover to see other rain measurements)
** Current wind speed in m/s (hover to see current wind gust speed)